Regional Weather Roundup
Issued by NWS Columbia, SC

Home | Current Version | Previous Version | Text Only | Print | Product List | Glossary On
Versions: 1 2 3 4 5 6 7 8 9 10 11 12 13 14 15 16 17 18 19 20 21 22 23 24 25 26 27 28
000
ASUS42 KCAE 292210
RWRCAE
REGIONAL WEATHER ROUNDUP
NATIONAL WEATHER SERVICE COLUMBIA SC
600 PM EDT FRI APR 29 2016

NOTE: "FAIR" INDICATES FEW OR NO CLOUDS BELOW 12,000 FEET WITH NO
SIGNIFICANT WEATHER AND/OR OBSTRUCTIONS TO VISIBILITY.

NOT ALL STATIONS ARE QUALITY CONTROLLED BY THE NATIONAL
WEATHER SERVICE. USE DATA WITH CAUTION...ESPECIALLY
DEWPOINT OBSERVATIONS.

SCZ001>056-GAZ040-063>065-077-292300-
...UPSTATE SOUTH CAROLINA...

CITY           SKY/WX    TMP DP  RH WIND       PRES   REMARKS
ANDERSON       SUNNY     87  48  25 SW9       29.93S
LIBERTY        PTCLDY    85  51  31 S6        29.93S
SPARTANBURG    MOSUNNY   84  46  26 SW5       29.93S
CLEMSON        SUNNY     86  53  32 VRB3      29.95S
GREENVILLE     MOSUNNY   85  50  29 SW7       29.95S
GREENWOOD      SUNNY     87  48  25 SW8       29.95R
GREER          MOSUNNY   85  50  29 S7        29.93S
ROCK HILL      CLOUDY    84  51  31 W3        29.93S
CHESTER        PTCLDY    82  46  28 S3        29.94S
LAURENS        CLEAR     86  50  28 S6        29.93S HAZE


...CENTRAL SOUTH CAROLINA...

CITY           SKY/WX    TMP DP  RH WIND       PRES   REMARKS
COLUMBIA APT   MOSUNNY   89  49  25 W7        29.90F
COLUMBIA OWENS MOSUNNY   90  45  21 W6        29.91F
MCENTIRE ANGB  PTSUNNY   88  54  31 SW6       29.91S
ORANGEBURG     SUNNY     88  55  32 S3        29.91S
SUMTER SHAW    MOSUNNY   86  56  36 S5        29.89F
NEWBERRY       CLEAR     86  50  28 SW5       29.95S
AIKEN          FAIR      88  50  27 CALM      29.95S
BARNWELL       FAIR      93  55  27 CALM      29.91S
CAMDEN         FAIR      86  57  37 CALM      29.92S
LANCASTER      PTCLDY    84  50  30 CALM      29.92S
WINNSBORO      CLEAR     86  50  28 CALM      29.93R


...EASTERN AND COASTAL SOUTH CAROLINA...

CITY           SKY/WX    TMP DP  RH WIND       PRES   REMARKS
MYRTLE BEACH   MOSUNNY   73  63  68 SE12      29.97S
N MYRTLE BCH   MOSUNNY   71  65  81 SE10      29.95S
CONWAY         FAIR      77  66  69 SE6       29.94S HAZE
MARION         FAIR      82  61  47 E3        29.92S
HARTSVILLE     FAIR      86  55  35 S5        29.91S
FLORENCE       SUNNY     85  60  42 SE5       29.91F
CHARLESTON APT MOSUNNY   82  62  50 SE15      29.93S
MOUNT PLEASANT FAIR      77  70  78 SE7       29.94S
WALTERBORO     PTCLDY    90  55  31 SE8       29.92R
BEAUFORT       MOSUNNY   86  64  47 SE7       29.92S


...EASTERN GEORGIA...

CITY           SKY/WX    TMP DP  RH WIND       PRES   REMARKS
AUGUSTA BUSH F SUNNY     89  52  28 E5        29.90S
AUGUSTA DANIEL LGT RAIN  90  54  29 S6        29.92S
THOMSON        SUNNY     88  63  43 CALM      29.97R
WASHINGTON     FAIR      82  52  34 CALM      29.93S
CLAXTON        FAIR      90  60  36 CALM      29.90S
SYLVANIA       CLEAR     91  57  32 CALM      29.92R
STATESBORO     SUNNY     93  61  34 CALM      29.90S
SAVANNAH       MOSUNNY   87  57  35 SE13      29.91S


...SOUTHERN NORTH CAROLINA...

CITY           SKY/WX    TMP DP  RH WIND       PRES   REMARKS
CHARLOTTE      CLOUDY    83  50  31 SW8       29.93S
MONROE         SUNNY     83  54  36 SW3       29.92S
WADESBORO      CLEAR     86  47  26 S6        29.91S
ROCKINGHAM     CLEAR     84  55  36 W3        29.92S
RUTHERFORDTON  CLOUDY   N/A N/A N/A SW7       29.94R
ASHEVILLE      CLOUDY    79  42  26 N8        30.01R

$$




USA.gov is the U.S. government's official web portal to all federal, state and local government web resources and services.